Location: Columbia
(38.9520°N, 92.3340°W)
Time: 11:01:24
(UTC-05:00)

Meteor 1-4 Rocket - Visible Passes

Search period start: 21 August 2014 00:00
Search period end: 31 August 2014 00:00
Orbit: 470 x 537 km, 81.2° (Epoch: 21 August)

Date Brightness Start Highest point End Pass type
(mag) Time Alt. Az. Time Alt. Az. Time Alt. Az.
23 Aug 6.1 23:46:43 10° NNW 23:46:43 10° NNW 23:46:43 10° NNW visible
24 Aug 5.9 23:27:51 10° N 23:28:04 11° N 23:28:04 11° N visible
25 Aug 5.7 23:09:01 10° N 23:09:25 13° N 23:09:25 13° N visible
26 Aug 5.5 22:50:15 10° N 22:50:47 14° N 22:50:47 14° N visible
27 Aug 5.4 22:31:32 10° N 22:32:10 14° NNE 22:32:10 14° NNE visible
28 Aug 5.3 22:12:53 10° NNE 22:13:33 14° NNE 22:13:33 14° NNE visible
29 Aug 5.2 21:54:20 10° NNE 21:54:57 13° NNE 21:54:57 13° NNE visible
29 Aug 6.1 23:29:40 10° NW 23:29:42 10° NW 23:29:42 10° NW visible
30 Aug 5.2 21:35:55 10° NNE 21:36:21 12° NE 21:36:21 12° NE visible
30 Aug 5.8 23:10:32 10° NNW 23:11:07 13° NW 23:11:07 13° NW visible
